Powrót do katalogu

SL-8 DEB

AktywnyLEO
NORAD 21234·DEBRIS·🇷🇺 Russia

Wystrzelony Feb 12, 1991 z Plesetsk Cosmodrome

Loading…

Następne Przeloty (najbliższe 24 godziny)

TLE

ŚwieżeSource: Space-Track

Epoka: Sep 14, 2026, 08:14 UTC

1 21234U 91009CT  26257.34339750 -.00000009  00000-0  42073-4 0  9997
2 21234  74.0114  26.1820 0127402 110.8062 278.5801 12.32929608597637

Śledź SL-8 DEB w czasie rzeczywistym z AllMySat

Download on the App Store